This is the latest recevied weather packets stored in our database for station/object IA5FYI-13. If no packets are shown the sender has not sent any weather packets the latest 10 day(s).
| Time | Temp. | Humidity | Pressure | Rain* | Wind** | Luminosity | Snow |
|---|---|---|---|---|---|---|---|
| 1777580112 | 17.22° C | 41% | 1019 hPa | 0 mm | - | - | - |
| 1777579813 | 17.22° C | 41% | 1019 hPa | 0 mm | - | - | - |
| 1777579509 | 17.78° C | 39% | 1018.6 hPa | 0 mm | - | - | - |
| 1777579231 | 17.78° C | 40% | 1018.6 hPa | 0 mm | - | - | - |
| 1777578909 | 17.78° C | 42% | 1018.6 hPa | 0 mm | - | - | - |
| 1777578613 | 17.78° C | 39% | 1018.3 hPa | 0 mm | - | - | - |
| 1777578313 | 17.78° C | 38% | 1018.6 hPa | 0 mm | - | - | - |
| 1777578013 | 17.78° C | 37% | 1018.3 hPa | 0 mm | - | - | - |
| 1777577709 | 17.78° C | 39% | 1018.6 hPa | 0 mm | - | - | - |
| 1777577423 | 17.78° C | 41% | 1018.3 hPa | 0 mm | - | - | - |
| 1777577110 | 17.78° C | 39% | 1018.3 hPa | 0 mm | - | - | - |
| 1777576814 | 17.78° C | 42% | 1018 hPa | 0 mm | - | - | - |
| 1777576514 | 18.89° C | 41% | 1018.3 hPa | 0 mm | - | - | - |
| 1777576213 | 18.89° C | 42% | 1018 hPa | 0 mm | - | - | - |
| 1777575909 | 18.89° C | 43% | 1018 hPa | 0 mm | - | - | - |
| 1777575634 | 18.89° C | 47% | 1018 hPa | 0 mm | - | - | - |
| 1777575309 | 18.89° C | 48% | 1017.6 hPa | 0 mm | - | - | - |
| 1777575014 | 18.89° C | 50% | 1017.6 hPa | 0 mm | - | - | - |
| 1777574712 | 18.89° C | 49% | 1017.6 hPa | 0 mm | - | - | - |
| 1777574413 | 18.89° C | 48% | 1017.6 hPa | 0 mm | - | - | - |
| 1777574109 | 18.89° C | 49% | 1017.6 hPa | 0 mm | - | - | - |
| 1777573825 | 18.89° C | 52% | 1017.6 hPa | 0 mm | - | - | - |
| 1777573510 | 18.89° C | 52% | 1017.3 hPa | 0 mm | - | - | - |
| 1777573212 | 20° C | 50% | 1017.3 hPa | 0 mm | - | - | - |
| 1777572913 | 20° C | 49% | 1017.3 hPa | 0 mm | - | - | - |
* Rain latest hour (hover to see other rain measurements)
** Current wind speed in m/s (hover to see current wind gust speed)